"startDT [UTC]","vpos","CH4 [ppm]","stdev(CH4) [ppm]","CO2 [ppm]","stdev(CO2) [ppm]","H2O_reported [%]","stdev(H2O_reported)","CavityPressure [torr]","CavityTemp [C]","OutletValve","CH4_dry [ppm]","CO2_dry [ppm]","DasTemp [C]","EtalonTemp [C]","WarmBoxTemp [C]","MPVPosition","T_ECpre [C]","T_EC1 [C]","T_EC2 [C]","p_inlet [hPa]","p_in [hPa]","p_out [hPa]","T_inlet [C]","RH_inlet [%]","dwpt_inlet [C]","T_vent [C]","RH_vent [%]","dwpt_vent [C]","flow_vent [l min-1]","flow_inlet [l min-1]","dwpt_sample [C]","T_room [C]"
2015-10-18 00:00:00,0.0,1.96082,0.00064,397.677,0.521,0.3749,0.0024,140.000,45.000,31770.65601,1.96811,399.513,36.879,45.068,45.000,0.00,0.09,-272.75,-272.80,-9,525,-944,21.8,10.8,-10.2,22.0,10.9,-9.9,5.73,2.08,-7.5,28.5
2015-10-18 00:01:00,0.0,1.96154,0.00034,397.264,0.122,0.3728,0.0019,140.000,45.000,31769.96923,1.96882,399.057,36.900,45.068,45.000,0.00,0.09,-272.75,-272.80,-8,525,-944,21.8,10.7,-10.3,22.1,10.8,-10.0,5.73,1.89,-7.6,28.5
2015-10-18 00:02:00,0.0,1.96216,0.00061,396.931,0.140,0.3726,0.0017,139.999,45.000,31769.42654,1.96941,398.731,36.912,45.068,45.000,0.00,0.09,-272.75,-272.80,-9,525,-944,21.8,10.7,-10.3,22.1,10.8,-10.0,5.73,1.87,-7.6,28.5
2015-10-18 00:03:00,0.0,1.96260,0.00040,397.276,0.189,0.3716,0.0017,139.999,45.000,31768.81495,1.96985,399.066,36.917,45.067,45.000,0.00,0.09,-272.75,-272.81,-9,526,-944,21.8,10.7,-10.4,22.1,10.8,-10.0,5.73,2.09,-7.6,28.6
2015-10-18 00:04:00,0.0,1.96269,0.00029,397.356,0.169,0.3710,0.0013,140.001,45.000,31769.79321,1.96992,399.151,36.924,45.067,45.000,0.00,0.09,-272.74,-272.80,-7,525,-944,21.8,10.7,-10.3,22.1,10.8,-10.0,5.73,1.73,-7.5,28.5
2015-10-18 00:05:00,0.0,1.96364,0.00066,396.598,0.498,0.3682,0.0023,140.001,45.000,31771.41296,1.97078,398.389,36.922,45.068,45.000,0.00,0.09,-272.75,-272.80,-9,525,-944,21.8,10.6,-10.4,22.0,10.7,-10.1,5.73,2.12,-7.5,28.6
2015-10-18 00:06:00,0.0,1.96417,0.00043,396.274,0.312,0.3699,0.0023,139.998,45.000,31769.55983,1.97139,398.058,36.904,45.068,45.000,0.00,0.09,-272.74,-272.81,-9,525,-944,21.7,10.6,-10.5,22.0,10.7,-10.2,5.73,1.81,-7.6,28.5
2015-10-18 00:07:00,0.0,1.96417,0.00042,396.508,0.318,0.3728,0.0026,140.000,45.000,31769.31899,1.97147,398.304,36.896,45.068,45.000,0.00,0.09,-272.75,-272.80,-8,525,-944,21.8,10.8,-10.2,22.0,10.8,-10.0,5.73,1.95,-7.5,28.5
2015-10-18 00:08:00,0.0,1.96416,0.00038,396.451,0.193,0.3771,0.0017,139.999,45.000,31771.77450,1.97149,398.262,36.896,45.068,45.000,0.00,0.09,-272.74,-272.81,-9,525,-944,21.8,10.9,-10.1,22.0,10.9,-9.9,5.73,2.02,-7.5,28.5
2015-10-18 00:09:00,0.0,1.96438,0.00037,396.717,0.257,0.3797,0.0013,140.000,45.000,31771.79874,1.97182,398.543,36.884,45.068,45.000,0.00,0.09,-272.74,-272.81,-8,525,-944,21.8,11.0,-10.0,22.1,11.0,-9.8,5.73,1.76,-7.5,28.5
2015-10-18 00:10:00,0.0,1.96509,0.00039,395.927,0.451,0.3764,0.0023,140.000,45.000,31772.15675,1.97245,397.760,36.897,45.068,45.000,0.00,0.09,-272.75,-272.81,-8,525,-944,21.8,10.9,-10.1,22.1,11.0,-9.8,5.73,2.14,-7.5,28.4
2015-10-18 00:11:00,0.0,1.96517,0.00040,395.652,0.077,0.3732,0.0022,140.002,45.000,31775.08178,1.97244,397.443,36.882,45.068,45.000,0.00,0.09,-272.73,-272.81,-9,525,-944,21.8,10.8,-10.2,22.0,10.9,-10.0,5.73,1.77,-7.5,28.5
2015-10-18 00:12:00,0.0,1.96498,0.00036,396.038,0.134,0.3749,0.0018,139.998,45.000,31772.60965,1.97232,397.835,36.890,45.068,45.000,0.00,0.09,-272.75,-272.80,-8,525,-944,21.8,10.8,-10.2,22.1,10.8,-9.9,5.73,2.01,-7.5,28.5
2015-10-18 00:13:00,0.0,1.96547,0.00038,395.725,0.186,0.3762,0.0019,139.999,45.000,31770.62780,1.97281,397.546,36.902,45.068,45.000,0.00,0.09,-272.75,-272.81,-8,525,-944,21.8,10.9,-10.1,22.1,10.9,-9.9,5.73,1.98,-7.5,28.5
2015-10-18 00:14:00,0.0,1.96572,0.00038,395.559,0.048,0.3743,0.0019,140.001,45.000,31771.67524,1.97303,397.358,36.915,45.068,45.000,0.00,0.09,-272.75,-272.80,-9,525,-944,21.8,10.8,-10.3,22.1,10.9,-9.9,5.73,1.79,-7.5,28.5
2015-10-18 00:15:00,0.0,1.96589,0.00040,395.465,0.039,0.3744,0.0015,139.999,45.000,31771.94330,1.97321,397.267,36.931,45.068,45.000,0.00,0.09,-272.75,-272.80,-8,525,-944,21.8,10.8,-10.2,22.1,10.9,-9.9,5.73,2.13,-7.5,28.5
2015-10-18 00:16:00,0.0,1.96605,0.00034,395.449,0.043,0.3741,0.0016,140.001,45.000,31772.72738,1.97337,397.248,36.911,45.068,45.000,0.00,0.09,-272.75,-272.81,-8,525,-944,21.8,10.8,-10.2,22.0,10.9,-9.9,5.73,1.74,-7.5,28.5
2015-10-18 00:17:00,0.0,1.96638,0.00031,395.400,0.043,0.3734,0.0015,140.000,45.000,31774.82360,1.97366,397.194,36.885,45.068,45.000,0.00,0.09,-272.75,-272.80,-9,525,-944,21.8,10.7,-10.3,22.1,10.8,-10.0,5.73,2.06,-7.5,28.5
2015-10-18 00:18:00,0.0,1.96716,0.00034,395.489,0.041,0.3710,0.0020,140.001,45.000,31775.44239,1.97438,397.272,36.898,45.068,45.000,0.00,0.09,-272.74,-272.80,-8,525,-944,21.8,10.7,-10.3,22.1,10.8,-10.0,5.73,1.92,-7.5,28.5
2015-10-18 00:19:00,0.0,1.96772,0.00035,395.484,0.054,0.3710,0.0014,139.999,45.000,31774.34672,1.97498,397.266,36.912,45.068,45.000,0.00,0.09,-272.75,-272.80,-8,525,-944,21.8,10.7,-10.3,22.1,10.8,-10.0,5.73,1.84,-7.5,28.5
2015-10-18 00:20:00,0.0,1.96745,0.00032,395.452,0.043,0.3727,0.0018,139.999,45.000,31774.86689,1.97474,397.246,36.906,45.068,45.000,0.00,0.09,-272.75,-272.81,-9,525,-944,21.8,10.7,-10.3,22.1,10.8,-10.0,5.73,2.10,-7.5,28.6
2015-10-18 00:21:00,0.0,1.96785,0.00035,395.430,0.042,0.3727,0.0018,140.000,45.000,31774.76818,1.97513,397.219,36.908,45.068,45.000,0.00,0.09,-272.74,-272.80,-8,525,-944,21.8,10.7,-10.3,22.0,10.8,-10.1,5.73,1.73,-7.5,28.5
2015-10-18 00:22:00,0.0,1.96730,0.00047,395.407,0.118,0.3745,0.0022,140.000,45.000,31775.08661,1.97465,397.210,36.907,45.068,45.000,0.00,0.09,-272.75,-272.81,-9,525,-944,21.8,10.8,-10.2,22.1,10.8,-10.0,5.73,2.11,-7.5,28.6
2015-10-18 00:23:00,0.0,1.96743,0.00040,395.362,0.077,0.3772,0.0014,139.998,45.000,31773.60774,1.97482,397.171,36.919,45.068,45.000,0.00,0.09,-272.74,-272.81,-9,525,-944,21.8,10.9,-10.1,22.1,10.9,-9.9,5.73,1.83,-7.5,28.6
2015-10-18 00:24:00,0.0,1.96741,0.00048,395.457,0.071,0.3797,0.0016,140.001,45.000,31774.55424,1.97480,397.283,36.892,45.068,45.000,0.00,0.09,-272.74,-272.80,-8,525,-944,21.8,11.0,-10.0,22.0,11.0,-9.8,5.73,1.94,-7.5,28.5
2015-10-18 00:25:00,0.0,1.96720,0.00055,395.328,0.068,0.3788,0.0015,140.000,45.000,31776.09927,1.97470,397.148,36.879,45.068,45.000,0.00,0.09,-272.74,-272.81,-9,525,-944,21.8,10.9,-10.1,22.0,11.0,-9.8,5.73,2.03,-7.5,28.5
2015-10-18 00:26:00,0.0,1.96717,0.00064,395.443,0.059,0.3765,0.0022,140.003,45.000,31776.82040,1.97448,397.254,36.876,45.068,45.000,0.00,0.09,-272.75,-272.81,-8,525,-944,21.8,10.9,-10.1,22.0,10.9,-9.8,5.73,1.76,-7.5,28.5
2015-10-18 00:27:00,0.0,1.96552,0.00252,395.434,0.096,0.3770,0.0024,140.001,45.000,31778.19577,1.97295,397.247,36.874,45.068,45.000,0.00,0.09,-272.75,-272.80,-8,525,-944,21.8,10.9,-10.1,22.0,10.9,-9.9,5.73,2.14,-7.5,28.4
2015-10-18 00:28:00,0.0,1.96429,0.00144,395.385,0.072,0.3799,0.0015,139.998,45.000,31776.85966,1.97174,397.209,36.875,45.068,45.000,0.00,0.09,-272.74,-272.80,-9,525,-944,21.8,11.0,-10.0,22.1,11.0,-9.8,5.73,1.77,-7.5,28.4
2015-10-18 00:29:00,0.0,1.96452,0.00138,395.315,0.053,0.3804,0.0016,139.999,45.000,31776.56252,1.97196,397.148,36.875,45.068,45.000,0.00,0.09,-272.75,-272.80,-8,525,-944,21.8,11.0,-10.0,22.1,11.1,-9.7,5.73,2.01,-7.5,28.4
2015-10-18 00:30:00,0.0,1.96414,0.00113,395.273,0.050,0.3791,0.0018,140.002,45.000,31777.47573,1.97155,397.094,36.889,45.068,45.000,0.00,0.09,-272.75,-272.81,-8,525,-944,21.8,11.0,-10.0,22.1,11.0,-9.8,5.73,1.97,-7.5,28.5
2015-10-18 00:31:00,0.0,1.96083,0.00323,395.293,0.032,0.3762,0.0015,139.998,45.000,31775.56727,1.96821,397.101,36.926,45.068,45.000,0.00,0.09,-272.74,-272.80,-9,525,-944,21.8,10.9,-10.1,22.1,10.9,-9.8,5.73,1.79,-7.5,28.5
2015-10-18 00:32:00,0.0,1.95883,0.00269,395.202,0.061,0.3775,0.0020,140.001,45.000,31776.63715,1.96622,397.016,36.938,45.068,45.000,0.00,0.09,-272.75,-272.80,-8,526,-944,21.8,10.8,-10.2,22.0,11.0,-9.8,5.73,2.13,-7.5,28.5
2015-10-18 00:33:00,0.0,1.96174,0.00291,395.251,0.045,0.3742,0.0023,139.999,45.000,31775.46805,1.96900,397.048,36.940,45.068,45.000,0.00,0.09,-272.74,-272.81,-8,525,-944,21.8,10.8,-10.1,22.1,10.9,-9.8,5.73,1.75,-7.5,28.5
2015-10-18 00:34:00,0.0,1.96245,0.00184,395.237,0.040,0.3749,0.0017,139.999,45.000,31777.72757,1.96976,397.038,36.945,45.068,45.000,0.00,0.09,-272.75,-272.80,-9,525,-944,21.8,10.8,-10.2,22.1,10.9,-9.9,5.73,2.06,-7.5,28.5
2015-10-18 00:35:00,0.0,1.96447,0.00077,395.285,0.039,0.3764,0.0020,139.999,45.000,31775.97034,1.97184,397.094,36.962,45.068,45.000,0.00,0.09,-272.74,-272.80,-8,525,-944,21.8,10.9,-10.1,22.1,10.9,-9.8,5.73,1.91,-7.5,28.5
2015-10-18 00:36:00,0.0,1.96463,0.00106,395.337,0.039,0.3755,0.0017,140.001,45.000,31776.13299,1.97191,397.140,36.953,45.067,45.000,0.00,0.09,-272.75,-272.80,-8,525,-944,21.8,10.8,-10.2,22.1,10.9,-9.9,5.73,1.85,-7.5,28.5
2015-10-18 00:37:00,0.0,1.96063,0.00314,395.268,0.054,0.3742,0.0018,139.999,45.000,31776.30334,1.96801,397.068,36.942,45.067,45.000,0.00,0.09,-272.75,-272.81,-9,525,-944,21.9,10.8,-10.2,22.1,10.9,-9.9,5.73,2.10,-7.5,28.5
2015-10-18 00:38:00,0.0,1.95750,0.00229,395.196,0.043,0.3738,0.0023,140.000,45.000,31775.91151,1.96481,396.991,36.942,45.068,45.000,0.00,0.09,-272.74,-272.81,-8,525,-944,21.9,10.8,-10.2,22.1,10.8,-9.9,5.73,1.73,-7.5,28.5
2015-10-18 00:39:00,0.0,1.96277,0.00135,395.199,0.054,0.3717,0.0024,139.997,45.000,31776.80896,1.96998,396.986,36.938,45.068,45.000,0.00,0.09,-272.75,-272.81,-9,525,-944,21.8,10.7,-10.3,22.1,10.8,-10.0,5.73,2.11,-7.5,28.6
2015-10-18 00:40:00,0.0,1.96250,0.00131,395.162,0.038,0.3738,0.0017,140.001,45.000,31775.96465,1.96977,396.957,36.942,45.068,45.000,0.00,0.09,-272.75,-272.81,-9,526,-944,21.9,10.8,-10.2,22.1,10.8,-9.9,5.73,1.83,-7.5,28.6
2015-10-18 00:41:00,0.0,1.96221,0.00134,395.164,0.035,0.3735,0.0016,140.001,45.000,31775.04501,1.96964,396.960,36.938,45.068,45.000,0.00,0.09,-272.74,-272.80,-8,525,-944,21.8,10.7,-10.3,22.1,10.8,-10.0,5.73,1.95,-7.5,28.6
2015-10-18 00:42:00,0.0,1.96214,0.00188,395.182,0.062,0.3732,0.0017,140.001,45.000,31776.15384,1.96937,396.973,36.938,45.068,45.000,0.00,0.09,-272.74,-272.80,-9,525,-944,21.8,10.7,-10.3,22.1,10.8,-10.0,5.73,2.02,-7.5,28.6
2015-10-18 00:43:00,0.0,1.96269,0.00128,395.242,0.034,0.3732,0.0018,139.998,45.000,31776.29313,1.96988,397.034,36.940,45.068,45.000,0.00,0.09,-272.75,-272.80,-8,526,-944,21.8,10.8,-10.3,22.1,10.8,-10.0,5.73,1.77,-7.5,28.6
2015-10-18 00:44:00,0.0,1.96096,0.00184,395.225,0.041,0.3725,0.0020,139.998,45.000,31776.52457,1.96832,397.014,36.949,45.068,45.000,0.00,0.09,-272.75,-272.80,-8,525,-944,21.8,10.7,-10.3,22.1,10.8,-10.0,5.73,2.13,-7.5,28.5
2015-10-18 00:45:00,0.0,1.95701,0.00250,395.233,0.042,0.3722,0.0016,140.000,45.000,31775.89586,1.96436,397.022,36.980,45.068,45.000,0.00,0.09,-272.74,-272.80,-9,525,-944,21.8,10.7,-10.3,22.1,10.8,-10.0,5.73,1.75,-7.5,28.5
2015-10-18 00:46:00,0.0,1.95658,0.00114,395.233,0.036,0.3717,0.0020,140.002,45.000,31773.29691,1.96389,397.020,36.984,45.068,45.000,0.00,0.09,-272.75,-272.81,-8,525,-944,21.8,10.7,-10.3,22.1,10.8,-10.0,5.73,2.05,-7.5,28.5
2015-10-18 00:47:00,0.0,1.95549,0.00146,395.346,0.064,0.3709,0.0025,140.001,45.000,31775.03985,1.96272,397.125,36.971,45.068,45.000,0.00,0.09,-272.74,-272.81,-8,525,-944,21.8,10.7,-10.4,22.1,10.7,-10.1,5.73,1.92,-7.5,28.5
2015-10-18 00:48:00,0.0,1.95695,0.00250,395.366,0.059,0.3699,0.0021,140.000,45.000,31778.27177,1.96405,397.143,36.963,45.068,45.000,0.00,0.09,-272.74,-272.80,-9,525,-944,21.8,10.7,-10.4,22.1,10.7,-10.1,5.73,1.83,-7.5,28.5
2015-10-18 00:49:00,0.0,1.95597,0.00177,395.333,0.046,0.3715,0.0017,140.000,45.000,31778.52841,1.96319,397.119,36.956,45.068,45.000,0.00,0.09,-272.75,-272.81,-8,526,-944,21.8,10.7,-10.4,22.1,10.7,-10.1,5.73,2.11,-7.5,28.5
2015-10-18 00:50:00,0.0,1.96273,0.00215,395.275,0.061,0.3718,0.0019,140.002,45.000,31778.25851,1.96976,397.064,36.946,45.068,45.000,0.00,0.09,-272.75,-272.81,-8,525,-944,21.8,10.7,-10.4,22.1,10.7,-10.1,5.73,1.73,-7.5,28.4
2015-10-18 00:51:00,0.0,1.96462,0.00066,395.205,0.031,0.3713,0.0014,139.999,45.000,31777.45738,1.97187,396.988,36.939,45.068,45.000,0.00,0.09,-272.75,-272.80,-9,525,-944,21.8,10.7,-10.4,22.1,10.8,-10.0,5.73,2.09,-7.5,28.4
2015-10-18 00:52:00,0.0,1.96528,0.00055,395.177,0.054,0.3712,0.0018,139.998,45.000,31776.59245,1.97252,396.959,36.938,45.068,45.000,0.00,0.09,-272.74,-272.81,-8,526,-944,21.8,10.7,-10.3,22.1,10.8,-10.0,5.73,1.85,-7.5,28.5
2015-10-18 00:53:00,0.0,1.96565,0.00040,395.206,0.062,0.3709,0.0018,139.997,45.000,31774.76675,1.97291,396.988,36.939,45.068,45.000,0.00,0.09,-272.75,-272.81,-9,525,-944,21.8,10.7,-10.3,22.1,10.7,-10.0,5.73,1.91,-7.5,28.4
2015-10-18 00:54:00,0.0,1.96475,0.00093,395.171,0.066,0.3710,0.0017,140.000,45.000,31774.95509,1.97203,396.954,36.959,45.068,45.000,0.00,0.09,-272.74,-272.81,-9,525,-944,21.8,10.7,-10.3,22.1,10.8,-10.0,5.73,2.06,-7.5,28.5
2015-10-18 00:55:00,0.0,1.96465,0.00097,395.101,0.040,0.3728,0.0019,140.000,45.000,31773.97244,1.97201,396.893,36.976,45.068,45.000,0.00,0.09,-272.74,-272.80,-8,525,-944,21.9,10.8,-10.2,22.1,10.8,-10.0,5.73,1.74,-7.5,28.5
2015-10-18 00:56:00,0.0,1.96471,0.00099,395.103,0.039,0.3745,0.0022,139.997,45.000,31774.43218,1.97191,396.900,36.997,45.068,45.000,0.00,0.09,-272.75,-272.80,-9,525,-944,21.9,10.8,-10.2,22.1,10.8,-9.9,5.73,2.13,-7.5,28.5
2015-10-18 00:57:00,0.0,1.96462,0.00221,395.110,0.037,0.3725,0.0018,139.999,45.000,31776.87085,1.97190,396.901,36.986,45.068,44.999,0.00,0.09,-272.75,-272.81,-9,526,-944,21.8,10.7,-10.3,22.1,10.8,-10.0,5.73,1.79,-7.5,28.5
2015-10-18 00:58:00,0.0,1.96357,0.00263,395.045,0.056,0.3735,0.0021,140.000,45.000,31776.78931,1.97097,396.838,36.991,45.068,45.000,0.00,0.09,-272.75,-272.79,-8,525,-944,21.8,10.7,-10.2,22.1,10.8,-10.0,5.73,1.99,-7.5,28.5
2015-10-18 00:59:00,0.0,1.96618,0.00098,395.117,0.047,0.3734,0.0016,139.999,45.000,31778.02297,1.97336,396.909,36.965,45.068,45.000,0.00,0.09,-272.74,-272.80,-9,525,-944,21.9,10.7,-10.2,22.1,10.8,-10.0,5.73,1.99,-7.5,28.6
2015-10-18 01:00:00,0.0,1.96637,0.00050,395.105,0.037,0.3730,0.0012,139.998,45.000,31777.64415,1.97370,396.897,36.953,45.068,45.000,0.00,0.09,-272.75,-272.81,-8,526,-944,21.9,10.7,-10.2,22.1,10.8,-10.0,5.73,1.79,-7.5,28.6
2015-10-18 01:01:00,0.0,1.96630,0.00207,395.126,0.072,0.3725,0.0018,139.999,45.000,31776.19818,1.97354,396.914,36.947,45.068,45.000,0.00,0.09,-272.74,-272.80,-8,525,-944,21.8,10.7,-10.3,22.1,10.8,-10.0,5.73,2.12,-7.5,28.6
2015-10-18 01:02:00,0.0,1.96679,0.00074,395.095,0.079,0.3740,0.0016,140.000,45.000,31776.85609,1.97411,396.895,36.938,45.068,45.000,0.00,0.09,-272.73,-272.80,-9,525,-944,21.8,10.8,-10.2,22.1,10.8,-10.0,5.73,1.73,-7.5,28.6
2015-10-18 01:03:00,0.0,1.96560,0.00072,394.989,0.068,0.3761,0.0024,140.000,45.000,31778.80129,1.97298,396.794,36.938,45.068,45.000,0.00,0.09,-272.75,-272.81,-8,526,-944,21.8,10.8,-10.2,22.1,10.9,-9.9,5.73,2.09,-7.5,28.6
2015-10-18 01:04:00,0.0,1.96570,0.00062,395.046,0.041,0.3757,0.0017,139.998,45.000,31778.32263,1.97310,396.850,36.936,45.068,45.000,0.00,0.09,-272.74,-272.81,-8,525,-944,21.8,10.8,-10.1,22.1,10.9,-9.9,5.73,1.86,-7.5,28.6
2015-10-18 01:05:00,0.0,1.96517,0.00125,395.052,0.034,0.3761,0.0020,139.999,45.000,31776.54259,1.97257,396.859,36.937,45.068,45.000,0.00,0.09,-272.75,-272.80,-9,526,-944,21.8,10.8,-10.2,22.1,10.9,-9.9,5.73,1.89,-7.5,28.6
2015-10-18 01:06:00,0.0,1.96438,0.00090,395.029,0.042,0.3749,0.0018,140.003,45.000,31778.09552,1.97167,396.829,36.939,45.068,45.000,0.00,0.09,-272.74,-272.81,-8,526,-944,21.8,10.8,-10.2,22.1,10.9,-9.9,5.73,2.08,-7.5,28.5
2015-10-18 01:07:00,0.0,1.96402,0.00085,395.026,0.039,0.3753,0.0014,140.002,45.000,31776.36638,1.97137,396.827,36.937,45.068,45.000,0.00,0.09,-272.75,-272.81,-9,525,-944,21.8,10.8,-10.2,22.1,10.8,-9.9,5.73,1.73,-7.5,28.5
2015-10-18 01:08:00,0.0,1.96479,0.00068,395.074,0.051,0.3761,0.0014,139.999,45.000,31774.06753,1.97207,396.878,36.937,45.068,45.000,0.00,0.09,-272.74,-272.80,-9,526,-944,21.9,10.8,-10.1,22.1,10.9,-9.9,5.73,2.13,-7.5,28.5
2015-10-18 01:09:00,0.0,1.96539,0.00116,395.089,0.042,0.3739,0.0018,140.000,45.000,31777.56022,1.97276,396.887,36.937,45.068,45.000,0.00,0.09,-272.74,-272.80,-8,526,-944,21.8,10.8,-10.2,22.1,10.8,-9.9,5.73,1.82,-7.5,28.5
2015-10-18 01:10:00,0.0,1.96387,0.00118,395.073,0.035,0.3738,0.0018,140.000,45.000,31776.93590,1.97121,396.867,36.936,45.068,45.000,0.00,0.09,-272.76,-272.80,-9,525,-944,21.9,10.8,-10.2,22.1,10.8,-10.0,5.73,1.94,-7.5,28.5
2015-10-18 01:11:00,0.0,1.95939,0.00210,394.984,0.053,0.3739,0.0017,140.001,45.000,31777.39176,1.96678,396.781,36.939,45.068,45.000,0.00,0.09,-272.75,-272.80,-9,526,-944,21.9,10.8,-10.2,22.1,10.8,-9.9,5.73,2.04,-7.5,28.5
2015-10-18 01:12:00,0.0,1.96503,0.00248,395.076,0.044,0.3734,0.0018,139.998,45.000,31777.22314,1.97206,396.868,36.938,45.068,45.000,0.00,0.09,-272.74,-272.80,-8,526,-944,21.8,10.8,-10.2,22.1,10.8,-10.0,5.73,1.75,-7.5,28.5
2015-10-18 01:13:00,0.0,1.96732,0.00060,395.103,0.049,0.3748,0.0016,139.999,45.000,31778.20639,1.97470,396.901,36.937,45.068,45.000,0.00,0.09,-272.75,-272.80,-9,525,-944,21.8,10.8,-10.2,22.1,10.8,-9.9,5.73,2.14,-7.5,28.5
2015-10-18 01:14:00,0.0,1.96698,0.00064,395.110,0.055,0.3750,0.0018,139.998,45.000,31779.03493,1.97428,396.911,36.938,45.068,45.000,0.00,0.09,-272.74,-272.81,-9,526,-944,21.8,10.8,-10.2,22.1,10.8,-9.9,5.73,1.76,-7.5,28.6
2015-10-18 01:15:00,0.0,1.96694,0.00083,395.148,0.057,0.3752,0.0017,140.000,45.000,31779.31102,1.97434,396.951,36.942,45.068,45.000,0.00,0.09,-272.74,-272.80,-8,525,-944,21.9,10.8,-10.2,22.1,10.8,-9.9,5.73,2.02,-7.5,28.6
2015-10-18 01:16:00,0.0,1.96636,0.00042,395.121,0.048,0.3767,0.0020,140.001,45.000,31778.61673,1.97370,396.930,36.948,45.068,45.000,0.00,0.09,-272.74,-272.81,-9,525,-944,21.8,10.8,-10.1,22.1,10.9,-9.9,5.73,1.96,-7.5,28.5
2015-10-18 01:17:00,0.0,1.96580,0.00047,395.114,0.048,0.3771,0.0014,139.998,45.000,31777.86833,1.97321,396.925,36.952,45.068,45.000,0.00,0.09,-272.75,-272.81,-8,526,-944,21.9,10.8,-10.1,22.1,10.9,-9.8,5.73,1.80,-7.5,28.6
2015-10-18 01:18:00,0.0,1.96565,0.00049,395.110,0.038,0.3778,0.0017,140.003,45.000,31778.47997,1.97302,396.925,36.980,45.068,45.000,0.00,0.09,-272.75,-272.81,-8,525,-944,21.8,10.9,-10.1,22.1,10.9,-9.8,5.73,2.12,-7.5,28.6
2015-10-18 01:19:00,0.0,1.96513,0.00067,395.157,0.030,0.3772,0.0019,139.998,45.000,31777.91806,1.97255,396.967,36.998,45.068,45.000,0.00,0.09,-272.74,-272.81,-9,525,-944,21.9,10.8,-10.1,22.1,10.9,-9.8,5.73,1.74,-7.5,28.6
2015-10-18 01:20:00,0.0,1.96506,0.00087,395.291,0.055,0.3772,0.0015,139.998,45.000,31778.36991,1.97249,397.103,37.000,45.068,45.000,0.00,0.09,-272.75,-272.81,-8,526,-944,21.9,10.8,-10.1,22.1,10.9,-9.9,5.73,2.08,-7.5,28.6
2015-10-18 01:21:00,0.0,1.96193,0.00055,395.202,0.041,0.3775,0.0011,139.998,45.000,31778.84281,1.96931,397.015,37.003,45.067,45.000,0.00,0.09,-272.74,-272.81,-8,526,-944,21.8,10.8,-10.2,22.1,10.9,-9.8,5.73,1.87,-7.5,28.7
2015-10-18 01:22:00,0.0,1.96317,0.00051,395.254,0.030,0.3777,0.0018,139.997,45.000,31777.35575,1.97054,397.066,37.009,45.067,45.000,0.00,0.09,-272.75,-272.79,-9,526,-944,21.9,10.8,-10.1,22.1,10.9,-9.8,5.73,1.88,-7.5,28.6
2015-10-18 01:23:00,0.0,1.96082,0.00236,395.291,0.031,0.3770,0.0016,140.000,45.000,31778.09276,1.96833,397.104,37.012,45.068,45.000,0.00,0.09,-272.75,-272.80,-8,525,-944,21.9,10.8,-10.1,22.1,10.9,-9.9,5.73,2.08,-7.5,28.6
2015-10-18 01:24:00,0.0,1.95628,0.00101,395.388,0.042,0.3791,0.0019,140.001,45.000,31777.31866,1.96370,397.207,37.039,45.068,45.000,0.00,0.09,-272.75,-272.81,-9,525,-944,21.8,10.9,-10.1,22.1,10.9,-9.8,5.73,1.73,-7.5,28.6
2015-10-18 01:25:00,0.0,1.95689,0.00105,395.411,0.048,0.3798,0.0017,139.997,45.000,31777.15813,1.96429,397.237,37.052,45.068,45.000,0.00,0.09,-272.75,-272.80,-9,526,-944,21.9,10.9,-10.0,22.1,11.0,-9.7,5.73,2.12,-7.5,28.6
2015-10-18 01:26:00,0.0,1.95537,0.00073,395.679,0.124,0.3805,0.0027,140.000,45.000,31777.49390,1.96282,397.502,37.041,45.067,45.000,0.00,0.09,-272.74,-272.81,-8,526,-944,21.8,11.0,-10.0,22.1,11.0,-9.7,5.73,1.82,-7.5,28.6
2015-10-18 01:27:00,0.0,1.95484,0.00053,395.855,0.056,0.3829,0.0014,139.998,45.000,31776.22407,1.96228,397.696,37.053,45.068,45.000,0.00,0.09,-272.74,-272.81,-9,525,-944,21.9,11.0,-9.9,22.2,11.1,-9.6,5.73,1.95,-7.5,28.5
2015-10-18 01:28:00,0.0,1.95476,0.00042,395.907,0.042,0.3844,0.0019,139.999,45.000,31778.53016,1.96225,397.756,37.050,45.068,45.000,0.00,0.09,-272.74,-272.81,-9,526,-944,21.9,11.1,-9.8,22.1,11.1,-9.6,5.73,2.03,-7.5,28.5
2015-10-18 01:29:00,0.0,1.95410,0.00040,396.009,0.072,0.3861,0.0019,139.999,45.000,31779.49419,1.96163,397.864,37.031,45.068,45.000,0.00,0.09,-272.74,-272.80,-8,526,-944,21.8,11.1,-9.8,22.1,11.2,-9.5,5.73,1.76,-7.5,28.5
2015-10-18 01:30:00,0.0,1.95396,0.00042,396.305,0.082,0.3883,0.0017,140.001,45.000,31777.73925,1.96150,398.171,37.049,45.068,45.000,0.00,0.09,-272.75,-272.80,-9,525,-944,21.9,11.2,-9.7,22.1,11.2,-9.5,5.73,2.13,-7.5,28.6
2015-10-18 01:31:00,0.0,1.95332,0.00051,396.321,0.070,0.3874,0.0019,140.000,45.000,31775.82038,1.96090,398.191,37.039,45.068,45.000,0.00,0.09,-272.74,-272.81,-9,525,-944,21.8,11.2,-9.7,22.1,11.2,-9.4,5.73,1.77,-7.5,28.5
2015-10-18 01:32:00,0.0,1.95266,0.00063,396.034,0.137,0.3857,0.0018,139.998,45.000,31775.04580,1.96013,397.896,37.034,45.068,45.000,0.00,0.09,-272.75,-272.80,-8,525,-944,21.9,11.1,-9.8,22.1,11.2,-9.5,5.73,2.00,-7.5,28.6
2015-10-18 01:33:00,0.0,1.95125,0.00069,395.697,0.133,0.3853,0.0019,140.003,45.000,31781.07082,1.95879,397.554,37.027,45.068,45.000,0.00,0.09,-272.75,-272.81,-9,525,-944,21.8,11.1,-9.8,22.1,11.2,-9.5,5.73,1.97,-7.5,28.5
2015-10-18 01:34:00,0.0,1.95139,0.00045,395.617,0.153,0.3854,0.0017,140.000,45.000,31779.34506,1.95891,397.478,37.047,45.068,45.000,0.00,0.09,-272.75,-272.81,-9,526,-944,21.9,11.1,-9.8,22.1,11.2,-9.5,5.73,1.80,-7.5,28.5
2015-10-18 01:35:00,0.0,1.95119,0.00050,395.564,0.077,0.3841,0.0019,139.999,45.000,31780.82141,1.95862,397.406,37.038,45.068,45.000,0.00,0.09,-272.74,-272.80,-8,525,-944,21.9,11.1,-9.9,22.1,11.1,-9.6,5.73,2.12,-7.5,28.6
2015-10-18 01:36:00,0.0,1.95180,0.00043,395.712,0.056,0.3867,0.0012,139.999,45.000,31781.31416,1.95932,397.573,37.037,45.068,45.000,0.00,0.09,-272.74,-272.80,-9,525,-944,21.9,11.1,-9.8,22.1,11.2,-9.5,5.73,1.74,-7.5,28.6
2015-10-18 01:37:00,0.0,1.95109,0.00057,395.623,0.079,0.3863,0.0020,139.999,45.000,31781.17172,1.95864,397.482,37.020,45.068,45.000,0.00,0.09,-272.76,-272.80,-8,526,-944,21.9,11.1,-9.8,22.1,11.2,-9.5,5.73,2.08,-7.5,28.7
2015-10-18 01:38:00,0.0,1.95097,0.00033,395.640,0.051,0.3872,0.0015,139.999,45.000,31782.36755,1.95847,397.502,37.028,45.068,45.000,0.00,0.09,-272.74,-272.80,-8,525,-944,21.8,11.2,-9.8,22.1,11.2,-9.5,5.73,1.87,-7.5,28.7
2015-10-18 01:39:00,0.0,1.95065,0.00032,395.620,0.060,0.3869,0.0016,140.001,45.000,31782.83210,1.95814,397.481,37.054,45.068,45.000,0.00,0.09,-272.75,-272.79,-9,526,-944,21.9,11.2,-9.7,22.1,11.2,-9.5,5.73,1.90,-7.5,28.7
2015-10-18 01:40:00,0.0,1.95045,0.00030,395.682,0.115,0.3877,0.0024,140.001,45.000,31782.28212,1.95802,397.543,37.060,45.068,45.000,0.00,0.09,-272.75,-272.81,-8,526,-944,21.8,11.2,-9.8,22.1,11.2,-9.5,5.73,2.06,-7.5,28.6
2015-10-18 01:41:00,0.0,1.94991,0.00049,395.746,0.102,0.3873,0.0014,140.001,45.000,31782.39518,1.95744,397.612,37.051,45.068,45.000,0.00,0.09,-272.75,-272.81,-9,526,-944,21.9,11.1,-9.8,22.1,11.2,-9.5,5.73,1.75,-7.5,28.6
2015-10-18 01:42:00,0.0,1.94925,0.00049,395.606,0.060,0.3870,0.0020,139.999,45.000,31781.75270,1.95678,397.469,37.003,45.068,45.000,0.00,0.09,-272.74,-272.80,-9,526,-944,21.8,11.1,-9.8,22.1,11.2,-9.5,5.73,2.13,-7.5,28.6
2015-10-18 01:43:00,0.0,1.94817,0.00038,395.385,0.088,0.3862,0.0017,140.001,45.000,31781.28143,1.95567,397.245,37.001,45.068,45.000,0.00,0.09,-272.74,-272.81,-8,525,-944,21.9,11.1,-9.8,22.1,11.2,-9.5,5.73,1.77,-7.4,28.6
2015-10-18 01:44:00,0.0,1.94844,0.00054,395.141,0.130,0.3878,0.0020,140.001,45.000,31782.34030,1.95601,397.011,37.000,45.068,45.000,0.00,0.09,-272.76,-272.81,-9,525,-944,21.9,11.2,-9.7,22.1,11.2,-9.5,5.73,2.01,-7.5,28.6
2015-10-18 01:45:00,0.0,1.94732,0.00060,395.055,0.058,0.3861,0.0019,139.998,45.000,31780.07464,1.95479,396.910,37.000,45.068,45.000,0.00,0.09,-272.75,-272.80,-9,526,-944,21.9,11.1,-9.8,22.1,11.2,-9.5,5.73,1.96,-7.5,28.6